Regional Weather Roundup
Issued by NWS

Home | Current Version | Previous Version | Graphics & Text | Print | Product List | Glossary On
Versions: 1 2 3 4 5 6 7 8 9 10 11 12 13 14 15 16 17 18 19 20 21 22 23 24 25 26 27 28 29 30 31 32 33 34 35 36 37 38 39 40 41 42 43 44 45 46 47 48 49 50
000
ASUS45 KTFX 250810
RWRMT
MONTANA REGIONAL WEATHER ROUNDUP
NATIONAL WEATHER SERVICE GREAT FALLS MT
200 AM MDT MON MAY 25 2015

NOTE: "FAIR" INDICATES FEW OR NO CLOUDS BELOW 12000 FEET WITH NO
SIGNIFICANT WEATHER AND/OR OBSTRUCTIONS TO VISIBILITY.

MTZ001>007-043-250900-
WEST OF THE DIVIDE

CITY           SKY/WX    TMP DP  RH WIND       PRES   REMARKS
KALISPELL      MOSUNNY   43  37  79 CALM      29.88S
MISSOULA       PTCLDY    47  38  71 W5        29.92S
BUTTE          CLEAR     43  39  86 S3        29.98F
MULLAN PASS    MOCLDY    50  36  58 CALM      29.96F
DEER LODGE       N/A     43  39  87 W3        29.99F
EUREKA           N/A     55  36  47 SE3         N/A
HAMILTON         N/A     46  39  76 SE2       29.91F
LIBBY            N/A     52  39  62 CALM      29.87R
RONAN            N/A     46  39  76 NE1       29.94F
$$

MTZ008-052>055-250900-
SOUTHWEST MONTANA

CITY           SKY/WX    TMP DP  RH WIND       PRES   REMARKS
BOZEMAN        PTCLDY    43  42  97 CALM      29.96F FOG
DILLON         CLEAR     43  39  86 E6        29.96F
W YELLOWSTONE  CLOUDY    43  41  93 CALM      29.99F
THREE FORKS      N/A     45  26  47 CALM      29.96F
TWIN BRIDGES     N/A     47  39  73 NE6       29.95F
$$

MTZ009-010-012-014-046-048-049-054-250900-
EAST SLOPES AND CENTRAL MONTANA

CITY           SKY/WX    TMP DP  RH WIND       PRES   REMARKS
CUT BANK       PTCLDY    42  37  82 N6        29.94F
GREAT FALLS    CLEAR     44  41  89 SW5       29.93F
MALMSTROM AFB  CLEAR     44  43  93 S8        29.93F
HELENA         CLEAR     47  42  83 W7        29.94F
CONRAD           N/A     41  41 100 CALM      29.96F
$$

MTZ011-013-016-021-045-047-050-051-250900-
NORTH CENTRAL MONTANA

CITY           SKY/WX    TMP DP  RH WIND       PRES   REMARKS
HAVRE          PTCLDY    47  44  90 SE5       29.91F
LEWISTOWN      CLEAR     46  42  86 SE5       29.96S
N BAR RANCH    CLOUDY    46  45  93 W9        29.97F
CHINOOK          N/A     46  45  93 CALM      29.91F
FORT BENTON      N/A     48  45  87 W3        29.93F
$$

MTZ017>020-022>027-061-062-250900-
NORTHEAST MONTANA

CITY           SKY/WX    TMP DP  RH WIND       PRES   REMARKS
GLASGOW        PTCLDY    51  42  71 CALM      29.89F
JORDAN           N/A     46  43  89 CALM      29.91R
SIDNEY         MOCLDY    48  46  93 CALM      29.89S
WOLF POINT     PTCLDY    47  43  86 SW5       29.89F
MALTA            N/A     45  38  76 CALM      29.87F
POPLAR           N/A     48  46  93 NW5       29.89F
SCOBEY           N/A     46  31  56 CALM      29.90F
$$

MTZ028>42-056>058-250900-
SOUTHCENTRAL AND SOUTHEAST MONTANA

CITY           SKY/WX    TMP DP  RH WIND       PRES   REMARKS
BAKER          CLOUDY    52  51  97 NW3       29.90F
BILLINGS       CLOUDY    52  46  80 NW8       29.93S
LIVINGSTON     CLEAR     42  40  92 SW3       29.96F
MILES CITY     CLOUDY    52  51  97 NW6       29.90S
BIG TIMBER       N/A     46  45  93 SW3       29.97S
EKALAKA          N/A     50  48  92 CALM      29.89F VSB 0
FORSYTH          N/A     55  52  88 CALM      29.90S
LAUREL           N/A     51  43  74 CALM      29.93S
ROUNDUP          N/A     49  44  83 CALM      29.86S
$$

REGIONAL REPORTS...DAKOTAS

CITY           SKY/WX    TMP DP  RH WIND       PRES   REMARKS
WILLISTON      MOCLDY    49  43  80 NE3       29.89S
MINOT          CLOUDY    55  48  77 CALM      29.87F
DICKINSON      CLOUDY    55  49  80 E7        29.86S
BEACH          CLOUDY    46  46 100 NW6       29.90F
CROSBY         FAIR      50  48  93 NW3       29.90F
WATFORD CITY   FAIR      45  43  93 CALM      29.87F
BISMARCK       LGT RAIN  56  54  93 NE6       29.86F
GRAND FORKS    CLOUDY    57  52  83 CALM      29.83S
FARGO          RAIN      59  56  89 N7        29.82F FOG
BUFFALO SD       N/A     53  51  93 N7        29.80F
RAPID CITY     CLOUDY    52  51  97 N7        29.84S
$$

REGIONAL REPORTS...WYOMING/IDAHO/WASHINGTON

CITY           SKY/WX    TMP DP  RH WIND       PRES   REMARKS
GILLETTE       CLOUDY    49  47  93 N6        29.88F
SHERIDAN       LGT RAIN  48  47  96 W5        29.92F
BUFFALO WY     CLOUDY    46  45  96 NW9       29.93F
CODY           CLOUDY    48  43  81 NW3       29.96S
YELLOWSTONE LA   N/A     30  28  92 CALM      30.05R
IDAHO FALLS    PTCLDY    51  47  86 SW5       29.92S
SALMON         PTCLDY    48  39  71 CALM      29.92S
BOISE          CLEAR     58  46  64 SE12      29.87S
SPOKANE        CLOUDY    60  47  61 NE8       29.84F
$$

REGIONAL REPORTS...ALBERTA

CITY           SKY/WX    TMP DP  RH WIND       PRES   REMARKS
EDMONTON       CLEAR     50  37  62 CALM      29.87S
CALGARY        PTCLDY    52  36  54 S8        29.91F
LETHBRIDGE     CLEAR     45  39  81 SW5       29.91F
MEDICINE HAT   CLEAR     48  39  71 S6        29.91S
$$

REGIONAL REPORTS...SASKATCHEWAN

CITY           SKY/WX    TMP DP  RH WIND       PRES   REMARKS
SWIFT CURRENT  MOCLDY    61  34  36 SE7       29.90F
REGINA         PTCLDY    52  41  66 SE7       29.89F
SASKATOON      CLEAR     48  41  76 NW5       29.89S
$$



USA.gov is the U.S. government's official web portal to all federal, state and local government web resources and services.